User: anonymous   Login
Location: Mentone
(34.5413°N, 85.5351°W)
Time: 00:50:58
(UTC-05:00)
Language:

Uosat F - Orbit

View from above orbital plane
View from above orbital plane
View from above satellite
View from above satellite

Ground track
Ground track

The orbit data is extracted from the following two-line orbital elements,

1 21575U 91050B   15241.49508317  .00000088  00000-0  41918-4 0  9998
2 21575 098.7451 231.2302 0008487 096.4260 015.5961 14.40659800266584
Epoch (UTC): 29 August 2015 11:52:55
Eccentricity: 0.0008487
inclination: 98.7451°
perigee height: 750 km
apogee height: 762 km
right ascension of ascending node: 231.2302°
argument of perigee: 96.4260°
revolutions per day: 14.40659800
mean anomaly at epoch: 15.5961°
orbit number at epoch: 26658

The dashed part of the orbit path shows where the satellite is in the earth's shadow,  

DLR